Faribault, MN

11:06 AM CDT on July 23, 2017 (GMT -0500)
Faribault Municipal

Weather History for KFBL - November, 2012

Change the Weather History Date:

Sunday, November 25, 2012

  Actual Average Record
Temperature  
Mean Temperature 28 °F -  
Max Temperature 32 °F 36 °F 63 °F (1960)
Min Temperature 23 °F 18 °F -9 °F (1996)
Degree Days  
Heating Degree Days 37    
Moisture  
Dew Point 22 °F    
Average Humidity 76    
Maximum Humidity 86    
Minimum Humidity 63    
Precipitation  
Precipitation 0.00 in - - ()
Sea Level Pressure  
Sea Level Pressure 29.96 in    
Wind  
Wind Speed 8 mph (WNW)    
Max Wind Speed 16 mph    
Max Gust Speed 21 mph    
Visibility 10 miles    
Events      
Averages and records for this station are not official NWS values.
T = Trace of Precipitation, MM = Missing Value Source: NWS Daily Summary

Daily Weather History Graph

Daily Weather History Graph

Search for Another Location

Airport or City:

Trip Planner

Search our weather history database for the weather conditions in past years. The results will help you decide how hot, cold, wet, or windy it might be!

Date:

Astronomy

Nov. 25, 2012 Rise Set
Actual Time 7:22 AM CST 4:37 PM CST
Civil Twilight 6:50 AM CST 5:10 PM CST
Nautical Twilight 6:14 AM CST 5:46 PM CST
Astronomical Twilight 5:39 AM CST 6:20 PM CST
Moon 2:58 PM CST (11/25) 4:32 AM CST (11/25)
Length of Visible Light 10h 19m
Length of Day
9h 15m
Waxing Gibbous, 93% of the Moon is Illuminated
Nov 25
Waxing Gibbous
Nov 28
Full
Dec 6
Last Quarter
Dec 13
New
Dec 19
First Quarter

Hourly Weather History & Observations

Time (CST) Temp. Windchill Dew Point Humidity Pressure Visibility Wind Dir Wind Speed Gust Speed Precip Events Conditions
12:14 AM 26.6 °F 20.0 °F 19.4 °F 74% - 10.0 mi South 5.8 mph - N/A   Clear
12:34 AM 26.6 °F 20.0 °F 19.4 °F 74% 29.80 in 10.0 mi SSW 5.8 mph - N/A   Scattered Clouds
12:54 AM 26.6 °F 20.0 °F 19.4 °F 74% 29.80 in 10.0 mi SSW 5.8 mph - N/A   Overcast
1:14 AM 28.4 °F 23.3 °F 19.4 °F 69% 29.80 in 10.0 mi SW 4.6 mph - N/A   Overcast
1:34 AM 28.4 °F 22.2 °F 21.2 °F 74% 29.80 in 10.0 mi WSW 5.8 mph - N/A   Overcast
1:54 AM 28.4 °F 21.2 °F 21.2 °F 74% 29.80 in 10.0 mi WSW 6.9 mph - N/A   Overcast
2:14 AM 30.2 °F 24.3 °F 21.2 °F 69% 29.81 in 10.0 mi West 5.8 mph - N/A   Overcast
2:34 AM 30.2 °F 22.6 °F 21.2 °F 69% 29.81 in 10.0 mi WNW 8.1 mph - N/A   Overcast
2:54 AM 30.2 °F 22.6 °F 21.2 °F 69% 29.82 in 10.0 mi WNW 8.1 mph - N/A   Overcast
3:13 AM 30.2 °F 22.6 °F 21.2 °F 69% 29.83 in 10.0 mi WNW 8.1 mph - N/A   Overcast
3:34 AM 28.4 °F 21.2 °F 21.2 °F 74% 29.84 in 10.0 mi WNW 6.9 mph - N/A   Mostly Cloudy
3:54 AM 26.6 °F 20.0 °F 19.4 °F 74% 29.85 in 10.0 mi WNW 5.8 mph - N/A   Scattered Clouds
4:13 AM 26.6 °F 19.1 °F 21.2 °F 80% 29.85 in 10.0 mi NW 6.9 mph - N/A   Scattered Clouds
4:34 AM 28.4 °F 21.2 °F 21.2 °F 74% 29.86 in 10.0 mi NW 6.9 mph - N/A   Overcast
4:54 AM 28.4 °F 19.7 °F 23.0 °F 80% 29.87 in 10.0 mi NW 9.2 mph - N/A   Overcast
5:13 AM 28.4 °F 16.6 °F 23.0 °F 80% 29.87 in 10.0 mi NNW 16.1 mph - N/A   Overcast
5:34 AM 28.4 °F 19.1 °F 23.0 °F 80% 29.87 in 10.0 mi NW 10.4 mph - N/A   Overcast
5:54 AM 28.4 °F 18.5 °F 23.0 °F 80% 29.88 in 10.0 mi NNW 11.5 mph 18.4 mph N/A   Overcast
6:14 AM 28.4 °F 18.5 °F 23.0 °F 80% 29.89 in 10.0 mi NW 11.5 mph 18.4 mph N/A   Overcast
6:34 AM 28.4 °F 19.7 °F 23.0 °F 80% 29.90 in 10.0 mi NW 9.2 mph 18.4 mph N/A   Overcast
6:54 AM 28.4 °F 19.7 °F 23.0 °F 80% 29.90 in 10.0 mi NW 9.2 mph 16.1 mph N/A   Overcast
7:13 AM 28.4 °F 21.2 °F 23.0 °F 80% 29.90 in 10.0 mi NW 6.9 mph - N/A   Overcast
7:34 AM 28.4 °F 19.7 °F 23.0 °F 80% 29.91 in 10.0 mi NW 9.2 mph - N/A   Overcast
7:54 AM 28.4 °F 18.5 °F 23.0 °F 80% 29.93 in 10.0 mi NW 11.5 mph 17.3 mph N/A   Overcast
8:13 AM 28.4 °F 20.4 °F 23.0 °F 80% 29.94 in 10.0 mi NW 8.1 mph - N/A   Overcast
8:34 AM 28.4 °F 22.2 °F 24.8 °F 86% 29.95 in 10.0 mi NW 5.8 mph - N/A   Overcast
8:54 AM 28.4 °F 23.3 °F 24.8 °F 86% 29.95 in 10.0 mi WNW 4.6 mph - N/A   Overcast
9:14 AM 28.4 °F 21.2 °F 24.8 °F 86% 29.95 in 10.0 mi WNW 6.9 mph - N/A   Overcast
9:54 AM 28.4 °F 19.1 °F 23.0 °F 80% 29.96 in 10.0 mi West 10.4 mph - N/A   Overcast
10:14 AM 28.4 °F 19.1 °F 23.0 °F 80% 29.97 in 10.0 mi West 10.4 mph - N/A   Overcast
10:34 AM 30.2 °F 20.8 °F 24.8 °F 80% 29.98 in 10.0 mi West 11.5 mph 17.3 mph N/A   Overcast
10:54 AM 30.2 °F 20.8 °F 23.0 °F 75% 29.98 in 10.0 mi West 11.5 mph 16.1 mph N/A   Overcast
11:14 AM 28.4 °F 18.5 °F 23.0 °F 80% 29.98 in 10.0 mi WNW 11.5 mph 18.4 mph N/A   Overcast
11:34 AM 28.4 °F 18.5 °F 21.2 °F 74% 29.98 in 10.0 mi West 11.5 mph - N/A   Overcast
11:53 AM 28.4 °F 18.5 °F 23.0 °F 80% 29.98 in 10.0 mi West 11.5 mph 17.3 mph N/A   Overcast
12:14 PM 30.2 °F 21.9 °F 23.0 °F 75% 29.98 in 10.0 mi West 9.2 mph - N/A   Overcast
12:34 PM 30.2 °F 19.8 °F 23.0 °F 75% 29.97 in 10.0 mi West 13.8 mph - N/A   Overcast
12:53 PM 30.2 °F 24.3 °F 23.0 °F 75% 29.97 in 10.0 mi West 5.8 mph 10.4 mph N/A   Scattered Clouds
1:14 PM 32.0 °F 23.6 °F 24.8 °F 75% 29.96 in 10.0 mi WSW 10.4 mph - N/A   Clear
1:34 PM 32.0 °F 23.0 °F 24.8 °F 75% 29.97 in 10.0 mi WNW 11.5 mph - N/A   Clear
1:54 PM 32.0 °F 23.6 °F 23.0 °F 69% 29.96 in 10.0 mi West 10.4 mph - N/A   Clear
2:13 PM 32.0 °F 23.0 °F 23.0 °F 69% 29.97 in 10.0 mi West 11.5 mph - N/A   Clear
2:34 PM 32.0 °F 22.5 °F 23.0 °F 69% 29.97 in 10.0 mi WNW 12.7 mph 17.3 mph N/A   Clear
2:54 PM 32.0 °F 23.6 °F 23.0 °F 69% 29.98 in 10.0 mi West 10.4 mph - N/A   Clear
3:14 PM 30.2 °F 21.9 °F 21.2 °F 69% 29.99 in 10.0 mi WNW 9.2 mph - N/A   Scattered Clouds
3:34 PM 30.2 °F 24.3 °F 23.0 °F 75% 29.99 in 10.0 mi WNW 5.8 mph - N/A   Mostly Cloudy
3:54 PM 30.2 °F 21.3 °F 21.2 °F 69% 29.99 in 10.0 mi NW 10.4 mph - N/A   Overcast
4:14 PM 28.4 °F 19.1 °F 21.2 °F 74% 30.00 in 10.0 mi NW 10.4 mph - N/A   Mostly Cloudy
4:34 PM 26.6 °F 20.0 °F 21.2 °F 80% 30.02 in 10.0 mi WNW 5.8 mph - N/A   Scattered Clouds
4:54 PM 26.6 °F 21.2 °F 21.2 °F 80% 30.02 in 10.0 mi WNW 4.6 mph - N/A   Scattered Clouds
5:14 PM 28.4 °F 24.6 °F 23.0 °F 80% 30.04 in 10.0 mi WNW 3.5 mph - N/A   Overcast
5:34 PM 28.4 °F 19.7 °F 21.2 °F 74% 30.05 in 10.0 mi WNW 9.2 mph - N/A   Overcast
5:54 PM 28.4 °F 21.2 °F 21.2 °F 74% 30.05 in 10.0 mi West 6.9 mph - N/A   Overcast
6:14 PM 28.4 °F 23.3 °F 21.2 °F 74% 30.04 in 10.0 mi West 4.6 mph - N/A   Overcast
6:34 PM 28.4 °F 22.2 °F 21.2 °F 74% 30.04 in 10.0 mi West 5.8 mph - N/A   Overcast
6:54 PM 28.4 °F - 23.0 °F 80% 30.03 in 10.0 mi Calm Calm - N/A   Overcast
7:14 PM 28.4 °F 23.3 °F 23.0 °F 80% 30.04 in 10.0 mi WSW 4.6 mph - N/A   Overcast
7:34 PM 28.4 °F 24.6 °F 23.0 °F 80% 30.04 in 10.0 mi WSW 3.5 mph - N/A   Overcast
7:54 PM 28.4 °F 23.3 °F 23.0 °F 80% 30.05 in 10.0 mi WSW 4.6 mph - N/A   Overcast
8:14 PM 28.4 °F 23.3 °F 23.0 °F 80% 30.05 in 10.0 mi WSW 4.6 mph - N/A   Overcast
8:34 PM 28.4 °F 22.2 °F 23.0 °F 80% 30.06 in 10.0 mi WSW 5.8 mph - N/A   Overcast
8:54 PM 28.4 °F 22.2 °F 23.0 °F 80% 30.06 in 10.0 mi WSW 5.8 mph - N/A   Overcast
9:14 PM 28.4 °F 22.2 °F 23.0 °F 80% 30.07 in 10.0 mi WSW 5.8 mph - N/A   Overcast
9:34 PM 28.4 °F 21.2 °F 23.0 °F 80% 30.08 in 10.0 mi West 6.9 mph - N/A   Overcast
9:54 PM 28.4 °F 16.6 °F 23.0 °F 80% 30.09 in 10.0 mi WNW 16.1 mph - N/A   Overcast
10:14 PM 28.4 °F 19.7 °F 17.6 °F 64% 30.10 in 10.0 mi NW 9.2 mph 18.4 mph N/A   Overcast
10:34 PM 26.6 °F 17.5 °F 17.6 °F 69% 30.11 in 10.0 mi WNW 9.2 mph - N/A   Overcast
10:54 PM 24.8 °F 14.0 °F 15.8 °F 69% 30.13 in 10.0 mi WNW 11.5 mph 17.3 mph N/A   Mostly Cloudy
11:14 PM 24.8 °F 14.0 °F 15.8 °F 69% 30.13 in 10.0 mi WNW 11.5 mph 18.4 mph N/A   Clear
11:34 PM 24.8 °F 12.9 °F 15.8 °F 69% 30.14 in 10.0 mi WNW 13.8 mph 20.7 mph N/A   Clear
11:54 PM 23.0 °F 11.1 °F 12.2 °F 63% 30.15 in 10.0 mi NW 12.7 mph 20.7 mph N/A   Clear